YAOGAN-30 W

导读

YAOGAN-30 W(遥感三十号08组卫星)是中国于北京时间2020年10月26日08时成功发射的遥感卫星,由长征系列运载火箭送入预定轨道,发射任务取得圆满成功。该卫星主要用于开展电磁环境探测及相关技术试验,可服务于资源勘探、农业估产、防灾减灾等民用领域,同时也具备空间态势感知能力,是中国遥感卫星星座建设的重要组成部分,进一步提升了中国对地观测体系的覆盖能力与技术水平。

Basic Information
目录编号:
46809
目录名称:
YAOGAN-30 W
国际标识:
2020-076C
轨道中心:
EARTH
卫星名称:
YAOGAN-30 W
卫星全名:
--
卫星状态:
在轨 (已飞行2060 天)
发射日期:
2020-10-26 UTC
国别 :
中国 (CN)
星等 :
--
Orbit Information
数据来源 国际轨道数据 AOE轨道数据
星历时间 2026-06-17T12:52:51+0800
8小时前
查看轨道信息
2026-06-11T11:00:00+0800
6天前
查看轨道信息
半长轴 6936.773km 6936.834km
偏心率 0.0005495 0.0006016
轨道倾角 34.996° 34.994°
近地点辐角 63.420° 7.426°
升交点赤经 90.778° 127.826°
平近点角 296.707° 177.946°
近地点 554.824km 554.523km
远地点 562.448km 562.871km
周期 95.829分钟 95.830分钟
每日圈数 15.026802 15.026605
Detailed Information
使用方式:
暂无
2D Orbit Map
3D Orbit Map
Orbit Altitude Analysis Chart
Orbit Inclination Analysis Chart
Orbit Comprehensive Analysis Chart
View Comprehensive Chart